LEO VANTAGE 1

Last updated on Fri Dec 29 2023 00:03:04 GMT+0000 (Coordinated Universal Time)

1 43113U 18004C 23361.90377845 .00003359 00000+0 26246-3 0 9995 2 43113 99.2778 148.9577 0383505 308.9918 47.7695 14.58485944305490
UTC large
Height (km)
Speed (km/s)
/
Latitude / Longitude
Inclination (degrees)
Orbital Period (minutes)
Azimuth
Elevation
Range (km)
Doppler Factor

Next 0 passes for location: London (51.5072 / 0.1276)

Sorry there are no passes over London.
LEO VANTAGE 1